26-07-2023, 00:00:05,    281,    0.0,   10.3,   0.00,   0.00, 1010.3,   98.7, -999.0
26-07-2023, 00:00:15,    281,    0.0,   10.4,   0.00,   0.00, 1010.3,   98.6, -999.0
26-07-2023, 00:00:25,    281,    0.0,   10.4,   0.00,   0.00, 1010.3,   98.5, -999.0
26-07-2023, 00:00:35,    281,    0.0,   10.4,   0.00,   0.00, 1010.3,   98.6, -999.0
26-07-2023, 00:00:45,    282,    0.0,   10.4,   0.00,   0.00, 1010.3,   98.6, -999.0
26-07-2023, 00:00:55,    281,    0.0,   10.3,   0.00,   0.00, 1010.3,   98.6, -999.0
26-07-2023, 00:01:05,    281,    0.0,   10.3,   0.00,   0.00, 1010.3,   98.6, -999.0
26-07-2023, 00:01:15,    281,    0.0,   10.4,   0.00,   0.00, 1010.3,   98.6, -999.0
26-07-2023, 00:01:25,    281,    0.0,   10.4,   0.00,   0.00, 1010.4,   98.5, -999.0
26-07-2023, 00:01:35,    281,    0.0,   10.3,   0.00,   0.00, 1010.3,   98.6, -999.0
26-07-2023, 00:01:45,    281,    0.0,   10.3,   0.00,   0.00, 1010.3,   98.7, -999.0
26-07-2023, 00:01:55,    281,    0.0,   10.3,   0.00,   0.00, 1010.3,   98.6, -999.0
26-07-2023, 00:02:05,    282,    0.0,   10.3,   0.00,   0.00, 1010.3,   98.5, -999.0
26-07-2023, 00:02:15,    281,    0.0,   10.3,   0.00,   0.00, 1010.3,   98.6, -999.0
26-07-2023, 00:02:24,    281,    0.0,   10.3,   0.00,   0.00, 1010.3,   98.6, -999.0
26-07-2023, 00:02:35,    281,    0.0,   10.3,   0.00,   0.00, 1010.3,   98.6, -999.0
26-07-2023, 00:02:45,    281,    0.0,   10.3,   0.00,   0.00, 1010.3,   98.6, -999.0
26-07-2023, 00:02:55,    281,    0.0,   10.3,   0.00,   0.00, 1010.3,   98.7, -999.0
26-07-2023, 00:03:04,    281,    0.0,   10.3,   0.00,   0.00, 1010.3,   98.6, -999.0
26-07-2023, 00:03:15,    282,    0.0,   10.3,   0.00,   0.00, 1010.3,   98.7, -999.0
26-07-2023, 00:03:25,    282,    0.0,   10.3,   0.00,   0.00, 1010.3,   98.6, -999.0
26-07-2023, 00:03:34,    282,    0.0,   10.3,   0.00,   0.00, 1010.3,   98.6, -999.0
26-07-2023, 00:03:44,    281,    0.0,   10.3,   0.00,   0.00, 1010.3,   98.6, -999.0
26-07-2023, 00:03:55,    281,    0.0,   10.3,   0.00,   0.00, 1010.3,   98.6, -999.0
26-07-2023, 00:04:05,    282,    0.0,   10.3,   0.00,   0.00, 1010.3,   98.6, -999.0
26-07-2023, 00:04:14,    281,    0.0,   10.3,   0.00,   0.00, 1010.3,   98.6, -999.0
26-07-2023, 00:04:25,    281,    0.0,   10.3,   0.00,   0.00, 1010.3,   98.6, -999.0
26-07-2023, 00:04:35,    281,    0.0,   10.3,   0.00,   0.00, 1010.3,   98.7, -999.0
26-07-2023, 00:04:44,    281,    0.0,   10.3,   0.00,   0.00, 1010.3,   98.6, -999.0
26-07-2023, 00:04:54,    281,    0.0,   10.2,   0.00,   0.00, 1010.3,   98.6, -999.0
26-07-2023, 00:05:05,    281,    0.0,   10.3,   0.00,   0.00, 1010.3,   98.6, -999.0
26-07-2023, 00:05:14,    281,    0.0,   10.3,   0.00,   0.00, 1010.3,   98.6, -999.0
26-07-2023, 00:05:24,    281,    0.0,   10.3,   0.00,   0.00, 1010.3,   98.6, -999.0
26-07-2023, 00:05:34,    281,    0.0,   10.3,   0.00,   0.00, 1010.3,   98.6, -999.0
26-07-2023, 00:05:45,    281,    0.0,   10.2,   0.00,   0.00, 1010.3,   98.6, -999.0
26-07-2023, 00:05:54,    281,    0.0,   10.3,   0.00,   0.00, 1010.3,   98.6, -999.0
26-07-2023, 00:06:04,    281,    0.0,   10.2,   0.00,   0.00, 1010.3,   98.5, -999.0
26-07-2023, 00:06:14,    281,    0.0,   10.2,   0.00,   0.00, 1010.3,   98.6, -999.0
26-07-2023, 00:06:24,    281,    0.0,   10.3,   0.00,   0.00, 1010.3,   98.6, -999.0
26-07-2023, 00:06:34,    282,    0.0,   10.3,   0.00,   0.00, 1010.3,   98.6, -999.0
26-07-2023, 00:06:44,    281,    0.0,   10.3,   0.00,   0.00, 1010.3,   98.6, -999.0
26-07-2023, 00:06:54,    282,    0.0,   10.3,   0.00,   0.00, 1010.3,   98.6, -999.0
26-07-2023, 00:07:04,    281,    0.0,   10.3,   0.00,   0.00, 1010.3,   98.6, -999.0
26-07-2023, 00:07:14,    281,    0.0,   10.3,   0.00,   0.00, 1010.3,   98.7, -999.0
26-07-2023, 00:07:24,    282,    0.0,   10.3,   0.00,   0.00, 1010.3,   98.6, -999.0
26-07-2023, 00:07:34,    282,    0.0,   10.3,   0.00,   0.00, 1010.3,   98.5, -999.0
26-07-2023, 00:07:44,    281,    0.0,   10.3,   0.00,   0.00, 1010.3,   98.7, -999.0
26-07-2023, 00:07:54,    281,    0.0,   10.3,   0.00,   0.00, 1010.3,   98.7, -999.0
26-07-2023, 00:08:04,    281,    0.0,   10.3,   0.00,   0.00, 1010.3,   98.6, -999.0
26-07-2023, 00:08:14,    281,    0.0,   10.3,   0.00,   0.00, 1010.3,   98.6, -999.0
26-07-2023, 00:08:24,    281,    0.0,   10.3,   0.00,   0.00, 1010.4,   98.5, -999.0
26-07-2023, 00:08:34,    281,    0.0,   10.3,   0.00,   0.00, 1010.3,   98.6, -999.0
26-07-2023, 00:08:44,    281,    0.0,   10.3,   0.00,   0.00, 1010.3,   98.6, -999.0
26-07-2023, 00:08:54,    281,    0.0,   10.3,   0.00,   0.00, 1010.3,   98.6, -999.0
26-07-2023, 00:09:04,    281,    0.0,   10.3,   0.00,   0.00, 1010.3,   98.6, -999.0
26-07-2023, 00:09:14,    282,    0.0,   10.3,   0.00,   0.00, 1010.3,   98.6, -999.0
26-07-2023, 00:09:24,    281,    0.0,   10.3,   0.00,   0.00, 1010.3,   98.6, -999.0
26-07-2023, 00:09:34,    281,    0.0,   10.2,   0.00,   0.00, 1010.3,   98.6, -999.0
26-07-2023, 00:09:44,    281,    0.0,   10.2,   0.00,   0.00, 1010.3,   98.6, -999.0
26-07-2023, 00:09:54,    281,    0.0,   10.3,   0.00,   0.00, 1010.3,   98.6, -999.0
26-07-2023, 00:10:04,    281,    0.0,   10.3,   0.00,   0.00, 1010.3,   98.6, -999.0
26-07-2023, 00:10:14,    282,    0.0,   10.2,   0.00,   0.00, 1010.3,   98.6, -999.0
26-07-2023, 00:10:24,    281,    0.0,   10.3,   0.00,   0.00, 1010.3,   98.5, -999.0
26-07-2023, 00:10:34,    281,    0.0,   10.2,   0.00,   0.00, 1010.3,   98.6, -999.0
26-07-2023, 00:10:44,    281,    0.0,   10.2,   0.00,   0.00, 1010.3,   98.6, -999.0
26-07-2023, 00:10:54,    282,    0.0,   10.3,   0.00,   0.00, 1010.3,   98.6, -999.0
26-07-2023, 00:11:04,    281,    0.0,   10.3,   0.00,   0.00, 1010.3,   98.7, -999.0
26-07-2023, 00:11:14,    281,    0.0,   10.4,   0.00,   0.00, 1010.3,   98.7, -999.0
26-07-2023, 00:11:24,    282,    0.0,   10.4,   0.00,   0.00, 1010.4,   98.6, -999.0
26-07-2023, 00:11:34,    281,    0.0,   10.3,   0.00,   0.00, 1010.3,   98.6, -999.0
26-07-2023, 00:11:44,    281,    0.0,   10.3,   0.00,   0.00, 1010.4,   98.6, -999.0
26-07-2023, 00:11:54,    281,    0.0,   10.3,   0.00,   0.00, 1010.3,   98.7, -999.0
26-07-2023, 00:12:04,    281,    0.0,   10.3,   0.00,   0.00, 1010.3,   98.6, -999.0
26-07-2023, 00:12:14,    281,    0.0,   10.3,   0.00,   0.00, 1010.3,   98.6, -999.0
26-07-2023, 00:12:24,    281,    0.0,   10.3,   0.00,   0.00, 1010.3,   98.6, -999.0
26-07-2023, 00:12:33,    281,    0.0,   10.4,   0.00,   0.00, 1010.4,   98.5, -999.0
26-07-2023, 00:12:44,    281,    0.0,   10.3,   0.00,   0.00, 1010.3,   98.6, -999.0
26-07-2023, 00:12:54,    281,    0.0,   10.4,   0.00,   0.00, 1010.4,   98.6, -999.0
26-07-2023, 00:13:03,    282,    0.0,   10.3,   0.00,   0.00, 1010.4,   98.7, -999.0
26-07-2023, 00:13:13,    281,    0.0,   10.3,   0.00,   0.00, 1010.4,   98.6, -999.0
26-07-2023, 00:13:24,    281,    0.0,   10.4,   0.00,   0.00, 1010.4,   98.7, -999.0
26-07-2023, 00:13:34,    281,    0.0,   10.3,   0.00,   0.00, 1010.4,   98.6, -999.0
26-07-2023, 00:13:43,    281,    0.0,   10.2,   0.00,   0.00, 1010.3,   98.6, -999.0
26-07-2023, 00:13:53,    282,    0.0,   10.2,   0.00,   0.00, 1010.4,   98.6, -999.0
26-07-2023, 00:14:04,    282,    0.0,   10.3,   0.00,   0.00, 1010.4,   98.6, -999.0
26-07-2023, 00:14:13,    282,    0.0,   10.3,   0.00,   0.00, 1010.4,   98.6, -999.0
26-07-2023, 00:14:23,    282,    0.0,   10.2,   0.00,   0.00, 1010.3,   98.6, -999.0
26-07-2023, 00:14:34,    282,    0.0,   10.2,   0.00,   0.00, 1010.3,   98.6, -999.0
26-07-2023, 00:14:44,    281,    0.0,   10.1,   0.00,   0.00, 1010.3,   98.5, -999.0
26-07-2023, 00:14:53,    281,    0.0,   10.1,   0.00,   0.00, 1010.3,   98.6, -999.0
26-07-2023, 00:15:03,    282,    0.0,   10.2,   0.00,   0.00, 1010.3,   98.6, -999.0
26-07-2023, 00:15:14,    282,    0.0,   10.2,   0.00,   0.00, 1010.4,   98.6, -999.0
26-07-2023, 00:15:23,    281,    0.0,   10.2,   0.00,   0.00, 1010.4,   98.7, -999.0
26-07-2023, 00:15:33,    281,    0.0,   10.2,   0.00,   0.00, 1010.4,   98.5, -999.0
26-07-2023, 00:15:43,    281,    0.0,   10.1,   0.00,   0.00, 1010.4,   98.6, -999.0
26-07-2023, 00:15:54,    281,    0.0,   10.2,   0.00,   0.00, 1010.3,   98.6, -999.0
26-07-2023, 00:16:03,    281,    0.0,   10.3,   0.00,   0.00, 1010.4,   98.5, -999.0
26-07-2023, 00:16:13,    281,    0.0,   10.3,   0.00,   0.00, 1010.3,   98.6, -999.0
26-07-2023, 00:16:23,    281,    0.0,   10.2,   0.00,   0.00, 1010.4,   98.6, -999.0
26-07-2023, 00:16:33,    281,    0.0,   10.2,   0.00,   0.00, 1010.4,   98.6, -999.0
26-07-2023, 00:16:43,    281,    0.0,   10.2,   0.00,   0.00, 1010.4,   98.6, -999.0
26-07-2023, 00:16:53,    281,    0.0,   10.2,   0.00,   0.00, 1010.4,   98.6, -999.0
26-07-2023, 00:17:03,    281,    0.0,   10.2,   0.00,   0.00, 1010.3,   98.6, -999.0
26-07-2023, 00:17:13,    281,    0.0,   10.1,   0.00,   0.00, 1010.3,   98.5, -999.0
26-07-2023, 00:17:23,    281,    0.0,   10.1,   0.00,   0.00, 1010.3,   98.6, -999.0
26-07-2023, 00:17:33,    281,    0.0,   10.2,   0.00,   0.00, 1010.4,   98.6, -999.0
26-07-2023, 00:17:43,    281,    0.0,   10.2,   0.00,   0.00, 1010.3,   98.6, -999.0
26-07-2023, 00:17:53,    281,    0.0,   10.2,   0.00,   0.00, 1010.4,   98.6, -999.0
26-07-2023, 00:18:03,    282,    0.0,   10.2,   0.00,   0.00, 1010.3,   98.5, -999.0
26-07-2023, 00:18:13,    281,    0.0,   10.2,   0.00,   0.00, 1010.3,   98.6, -999.0
26-07-2023, 00:18:23,    281,    0.0,   10.2,   0.00,   0.00, 1010.3,   98.6, -999.0
26-07-2023, 00:18:33,    281,    0.0,   10.1,   0.00,   0.00, 1010.3,   98.6, -999.0
26-07-2023, 00:18:43,    281,    0.0,   10.1,   0.00,   0.00, 1010.3,   98.6, -999.0
26-07-2023, 00:18:53,    281,    0.0,   10.1,   0.00,   0.00, 1010.4,   98.6, -999.0
26-07-2023, 00:19:03,    281,    0.0,   10.2,   0.00,   0.00, 1010.4,   98.6, -999.0
26-07-2023, 00:19:13,    282,    0.0,   10.2,   0.00,   0.00, 1010.4,   98.5, -999.0
26-07-2023, 00:19:23,    281,    0.0,   10.1,   0.00,   0.00, 1010.4,   98.6, -999.0
26-07-2023, 00:19:33,    282,    0.0,   10.1,   0.00,   0.00, 1010.4,   98.6, -999.0
26-07-2023, 00:19:43,    282,    0.0,   10.2,   0.00,   0.00, 1010.4,   98.5, -999.0
26-07-2023, 00:19:53,    281,    0.0,   10.1,   0.00,   0.00, 1010.4,   98.6, -999.0
26-07-2023, 00:20:03,    281,    0.0,   10.1,   0.00,   0.00, 1010.4,   98.6, -999.0
26-07-2023, 00:20:13,    281,    0.0,   10.1,   0.00,   0.00, 1010.4,   98.6, -999.0
26-07-2023, 00:20:23,    281,    0.0,   10.1,   0.00,   0.00, 1010.4,   98.6, -999.0
26-07-2023, 00:20:33,    281,    0.0,   10.1,   0.00,   0.00, 1010.4,   98.6, -999.0
26-07-2023, 00:20:43,    281,    0.0,   10.0,   0.00,   0.00, 1010.4,   98.6, -999.0
26-07-2023, 00:20:53,    282,    0.0,   10.1,   0.00,   0.00, 1010.4,   98.6, -999.0
26-07-2023, 00:21:03,    282,    0.0,   10.1,   0.00,   0.00, 1010.4,   98.6, -999.0
26-07-2023, 00:21:13,    281,    0.0,   10.1,   0.00,   0.00, 1010.4,   98.6, -999.0
26-07-2023, 00:21:23,    281,    0.0,   10.1,   0.00,   0.00, 1010.4,   98.6, -999.0
26-07-2023, 00:21:32,    281,    0.0,   10.1,   0.00,   0.00, 1010.4,   98.6, -999.0
26-07-2023, 00:21:43,    282,    0.0,   10.0,   0.00,   0.00, 1010.4,   98.6, -999.0
26-07-2023, 00:21:53,    281,    0.0,   10.0,   0.00,   0.00, 1010.4,   98.6, -999.0
26-07-2023, 00:22:03,    282,    0.0,   10.1,   0.00,   0.00, 1010.4,   98.5, -999.0
26-07-2023, 00:22:13,    281,    0.0,   10.1,   0.00,   0.00, 1010.4,   98.6, -999.0
26-07-2023, 00:22:23,    281,    0.0,   10.1,   0.00,   0.00, 1010.4,   98.6, -999.0
26-07-2023, 00:22:33,    281,    0.0,   10.1,   0.00,   0.00, 1010.4,   98.6, -999.0
26-07-2023, 00:22:42,    281,    0.0,   10.1,   0.00,   0.00, 1010.4,   98.6, -999.0
26-07-2023, 00:22:53,    281,    0.0,   10.1,   0.00,   0.00, 1010.4,   98.6, -999.0
26-07-2023, 00:23:03,    281,    0.0,   10.1,   0.00,   0.00, 1010.4,   98.6, -999.0
26-07-2023, 00:23:13,    282,    0.0,   10.0,   0.00,   0.00, 1010.4,   98.6, -999.0
26-07-2023, 00:23:22,    281,    0.0,   10.0,   0.00,   0.00, 1010.4,   98.6, -999.0
26-07-2023, 00:23:33,    281,    0.0,   10.1,   0.00,   0.00, 1010.4,   98.6, -999.0
26-07-2023, 00:23:43,    282,    0.0,   10.1,   0.00,   0.00, 1010.4,   98.6, -999.0
26-07-2023, 00:23:52,    281,    0.0,   10.1,   0.00,   0.00, 1010.4,   98.6, -999.0
26-07-2023, 00:24:02,    281,    0.0,   10.1,   0.00,   0.00, 1010.4,   98.6, -999.0
26-07-2023, 00:24:13,    281,    0.0,   10.0,   0.00,   0.00, 1010.4,   98.6, -999.0
26-07-2023, 00:24:23,    281,    0.0,   10.0,   0.00,   0.00, 1010.4,   98.6, -999.0
26-07-2023, 00:24:32,    282,    0.0,   10.0,   0.00,   0.00, 1010.4,   98.6, -999.0
26-07-2023, 00:24:42,    281,    0.0,   10.0,   0.00,   0.00, 1010.4,   50.0, -999.0
26-07-2023, 00:24:53,    281,    0.0,   10.0,   0.00,   0.00, 1010.4,    0.3, -999.0
26-07-2023, 00:25:02,    281,    0.0,   10.1,   0.00,   0.00, 1010.4,    0.6, -999.0
26-07-2023, 00:25:12,    281,    0.0,   10.0,   0.00,   0.00, 1010.4,    0.5, -999.0
26-07-2023, 00:25:22,    281,    0.0,   10.0,   0.00,   0.00, 1010.4,    0.5, -999.0
26-07-2023, 00:25:32,    281,    0.0,   10.0,   0.00,   0.00, 1010.4,    0.7, -999.0
26-07-2023, 00:25:42,    281,    0.0,   10.0,   0.00,   0.00, 1010.4,    0.6, -999.0
26-07-2023, 00:25:52,    281,    0.0,   10.0,   0.00,   0.00, 1010.4,    0.8, -999.0
26-07-2023, 00:26:02,    281,    0.0,   10.0,   0.00,   0.00, 1010.4,    0.8, -999.0
26-07-2023, 00:26:12,    281,    0.0,   10.0,   0.00,   0.00, 1010.4,    0.6, -999.0
26-07-2023, 00:26:22,    281,    0.0,   10.0,   0.00,   0.00, 1010.4,    0.3, -999.0
26-07-2023, 00:26:32,    281,    0.0,   10.0,   0.00,   0.00, 1010.4,    1.0, -999.0
26-07-2023, 00:26:42,    281,    0.0,   10.1,   0.00,   0.00, 1010.4,    0.6, -999.0
26-07-2023, 00:26:52,    281,    0.0,   10.1,   0.00,   0.00, 1010.4,    0.6, -999.0
26-07-2023, 00:27:02,    281,    0.0,   10.1,   0.00,   0.00, 1010.4,    0.6, -999.0
26-07-2023, 00:27:12,    281,    0.0,   10.0,   0.00,   0.00, 1010.4,    0.3, -999.0
26-07-2023, 00:27:22,    281,    0.0,   10.0,   0.00,   0.00, 1010.4,    0.6, -999.0
26-07-2023, 00:27:32,    281,    0.0,   10.0,   0.00,   0.00, 1010.4,    0.7, -999.0
26-07-2023, 00:27:42,    281,    0.0,   10.1,   0.00,   0.00, 1010.4,    0.8, -999.0
26-07-2023, 00:27:52,    281,    0.0,   10.1,   0.00,   0.00, 1010.4,    0.3, -999.0
26-07-2023, 00:28:02,    281,    0.0,   10.0,   0.00,   0.00, 1010.4,    0.8, -999.0
26-07-2023, 00:28:12,    281,    0.0,   10.0,   0.00,   0.00, 1010.4,    0.7, -999.0
26-07-2023, 00:28:22,    281,    0.0,   10.0,   0.00,   0.00, 1010.4,    0.4, -999.0
26-07-2023, 00:28:32,    281,    0.0,   10.0,   0.00,   0.00, 1010.4,    0.5, -999.0
26-07-2023, 00:28:42,    281,    0.0,   10.1,   0.00,   0.00, 1010.4,    0.6, -999.0
26-07-2023, 00:28:52,    281,    0.0,   10.0,   0.00,   0.00, 1010.4,    0.7, -999.0
26-07-2023, 00:29:02,    281,    0.0,   10.0,   0.00,   0.00, 1010.4,    0.6, -999.0
26-07-2023, 00:29:12,    281,    0.0,   10.0,   0.00,   0.00, 1010.4,    0.8, -999.0
26-07-2023, 00:29:22,    281,    0.0,   10.0,   0.00,   0.00, 1010.4,    0.8, -999.0
26-07-2023, 00:29:32,    281,    0.0,   10.0,   0.00,   0.00, 1010.4,    0.5, -999.0
26-07-2023, 00:29:42,    281,    0.0,   10.0,   0.00,   0.00, 1010.4,    0.7, -999.0
26-07-2023, 00:29:53,    281,    0.0,   10.0,   0.00,   0.00, 1010.4,    0.7, -999.0
26-07-2023, 00:30:02,    281,    0.0,   10.0,   0.00,   0.00, 1010.4,    0.8, -999.0
26-07-2023, 00:30:12,    281,    0.0,   10.0,   0.00,   0.00, 1010.4,    0.6, -999.0
26-07-2023, 00:30:22,    281,    0.0,   10.0,   0.00,   0.00, 1010.4,    0.8, -999.0
26-07-2023, 00:30:32,    281,    0.0,   10.0,   0.00,   0.00, 1010.4,    0.5, -999.0
26-07-2023, 00:30:42,    281,    0.0,   10.0,   0.00,   0.00, 1010.4,    0.6, -999.0
26-07-2023, 00:30:52,    281,    0.0,    9.9,   0.00,   0.00, 1010.4,    0.5, -999.0
26-07-2023, 00:31:02,    281,    0.0,    9.9,   0.00,   0.00, 1010.4,    0.7, -999.0
26-07-2023, 00:31:12,    281,    0.0,   10.0,   0.00,   0.00, 1010.4,    0.6, -999.0
26-07-2023, 00:31:22,    281,    0.0,   10.0,   0.00,   0.00, 1010.4,    0.6, -999.0
26-07-2023, 00:31:32,    281,    0.0,   10.0,   0.00,   0.00, 1010.4,    0.6, -999.0
26-07-2023, 00:31:42,    281,    0.0,   10.0,   0.00,   0.00, 1010.4,    0.3, -999.0
26-07-2023, 00:31:51,    281,    0.0,    9.9,   0.00,   0.00, 1010.4,    0.6, -999.0
26-07-2023, 00:32:02,    281,    0.0,   10.0,   0.00,   0.00, 1010.4,    0.5, -999.0
26-07-2023, 00:32:12,    281,    0.0,   10.0,   0.00,   0.00, 1010.4,    0.6, -999.0
26-07-2023, 00:32:22,    281,    0.0,   10.0,   0.00,   0.00, 1010.4,    0.4, -999.0
26-07-2023, 00:32:31,    281,    0.0,   10.0,   0.00,   0.00, 1010.4,    0.8, -999.0
26-07-2023, 00:32:42,    281,    0.0,   10.0,   0.00,   0.00, 1010.4,    0.6, -999.0
26-07-2023, 00:32:52,    281,    0.0,    9.9,   0.00,   0.00, 1010.4,    0.5, -999.0
26-07-2023, 00:33:01,    281,    0.0,    9.9,   0.00,   0.00, 1010.4,    0.5, -999.0
26-07-2023, 00:33:11,    281,    0.0,   10.0,   0.00,   0.00, 1010.4,    0.6, -999.0
26-07-2023, 00:33:22,    281,    0.0,    9.9,   0.00,   0.00, 1010.4,    0.5, -999.0
26-07-2023, 00:33:32,    281,    0.0,    9.9,   0.00,   0.00, 1010.4,    0.3, -999.0
26-07-2023, 00:33:41,    281,    0.0,   10.0,   0.00,   0.00, 1010.4,    0.8, -999.0
26-07-2023, 00:33:51,    281,    0.0,    9.9,   0.00,   0.00, 1010.4,    0.8, -999.0
26-07-2023, 00:34:02,    281,    0.0,    9.9,   0.00,   0.00, 1010.4,    0.5, -999.0
26-07-2023, 00:34:11,    281,    0.0,   10.0,   0.00,   0.00, 1010.4,    1.3, -999.0
26-07-2023, 00:34:21,    281,    0.0,   10.0,   0.00,   0.00, 1010.4,    0.7, -999.0
26-07-2023, 00:34:31,    281,    0.0,   10.0,   0.00,   0.00, 1010.4,    0.8, -999.0
26-07-2023, 00:34:42,    281,    0.0,   10.0,   0.00,   0.00, 1010.4,    0.2, -999.0
26-07-2023, 00:34:51,    281,    0.0,   10.0,   0.00,   0.00, 1010.4,    0.5, -999.0
26-07-2023, 00:35:01,    281,    0.0,   10.0,   0.00,   0.00, 1010.4,    0.0, -999.0
26-07-2023, 00:35:11,    281,    0.0,   10.0,   0.00,   0.00, 1010.4,    0.9, -999.0
26-07-2023, 00:35:21,    281,    0.0,   10.0,   0.00,   0.00, 1010.4,    0.7, -999.0
26-07-2023, 00:35:31,    281,    0.0,   10.0,   0.00,   0.00, 1010.4,    0.6, -999.0
26-07-2023, 00:35:41,    281,    0.0,    9.9,   0.00,   0.00, 1010.4,    0.8, -999.0
26-07-2023, 00:35:52,    280,    0.0,    9.9,   0.00,   0.00, 1010.4,    0.5, -999.0
26-07-2023, 00:36:01,    281,    0.0,   10.0,   0.00,   0.00, 1010.4,    0.6, -999.0
26-07-2023, 00:36:11,    281,    0.0,    9.9,   0.00,   0.00, 1010.3,    0.0, -999.0
26-07-2023, 00:36:21,    281,    0.0,   10.0,   0.00,   0.00, 1010.4,    0.1, -999.0
26-07-2023, 00:36:31,    281,    0.0,   10.0,   0.00,   0.00, 1010.4,    0.6, -999.0
26-07-2023, 00:36:41,    281,    0.0,    9.9,   0.00,   0.00, 1010.4,    0.3, -999.0
26-07-2023, 00:36:51,    281,    0.0,    9.9,   0.00,   0.00, 1010.4,    0.0, -999.0
26-07-2023, 00:37:01,    281,    0.0,    9.9,   0.00,   0.00, 1010.4,    0.0, -999.0
26-07-2023, 00:37:11,    281,    0.0,    9.9,   0.00,   0.00, 1010.4,    0.1, -999.0
26-07-2023, 00:37:21,    281,    0.0,    9.9,   0.00,   0.00, 1010.4,    0.3, -999.0
26-07-2023, 00:37:31,    281,    0.0,    9.9,   0.00,   0.00, 1010.3,    0.8, -999.0
26-07-2023, 00:37:41,    281,    0.0,    9.9,   0.00,   0.00, 1010.3,    0.8, -999.0
26-07-2023, 00:37:51,    281,    0.0,    9.9,   0.00,   0.00, 1010.4,    0.2, -999.0
26-07-2023, 00:38:01,    281,    0.0,    9.9,   0.00,   0.00, 1010.4,    1.1, -999.0
26-07-2023, 00:38:11,    281,    0.0,    9.9,   0.00,   0.00, 1010.4,    0.3, -999.0
26-07-2023, 00:38:21,    281,    0.0,    9.9,   0.00,   0.00, 1010.4,    0.5, -999.0
26-07-2023, 00:38:31,    281,    0.0,    9.9,   0.00,   0.00, 1010.4,    0.7, -999.0
26-07-2023, 00:38:41,    281,    0.0,    9.9,   0.00,   0.00, 1010.4,    0.7, -999.0
26-07-2023, 00:38:51,    281,    0.0,    9.9,   0.00,   0.00, 1010.4,    0.6, -999.0
26-07-2023, 00:39:01,    281,    0.0,    9.9,   0.00,   0.00, 1010.4,    0.6, -999.0
26-07-2023, 00:39:11,    281,    0.0,    9.9,   0.00,   0.00, 1010.4,    0.5, -999.0
26-07-2023, 00:39:21,    281,    0.0,    9.9,   0.00,   0.00, 1010.4,    0.7, -999.0
26-07-2023, 00:39:31,    281,    0.0,    9.9,   0.00,   0.00, 1010.4,    0.6, -999.0
26-07-2023, 00:39:41,    281,    0.0,    9.9,   0.00,   0.00, 1010.4,    0.6, -999.0
26-07-2023, 00:39:51,    281,    0.0,    9.9,   0.00,   0.00, 1010.4,    0.7, -999.0
26-07-2023, 00:40:01,    281,    0.0,    9.9,   0.00,   0.00, 1010.4,    0.5, -999.0
26-07-2023, 00:40:11,    280,    0.0,    9.9,   0.00,   0.00, 1010.4,    1.0, -999.0
26-07-2023, 00:40:21,    281,    0.0,    9.8,   0.00,   0.00, 1010.4,    0.9, -999.0
26-07-2023, 00:40:31,    281,    0.0,    9.8,   0.00,   0.00, 1010.4,    0.1, -999.0
26-07-2023, 00:40:41,    281,    0.0,    9.8,   0.00,   0.00, 1010.4,    0.7, -999.0
26-07-2023, 00:40:51,    281,    0.0,    9.8,   0.00,   0.00, 1010.4,    1.0, -999.0
26-07-2023, 00:41:01,    281,    0.0,    9.9,   0.00,   0.00, 1010.4,    0.2, -999.0
26-07-2023, 00:41:11,    281,    0.0,    9.9,   0.00,   0.00, 1010.4,    0.1, -999.0
26-07-2023, 00:41:21,    281,    0.0,    9.9,   0.00,   0.00, 1010.4,    1.0, -999.0
26-07-2023, 00:41:31,    281,    0.0,    9.9,   0.00,   0.00, 1010.3,    0.7, -999.0
26-07-2023, 00:41:40,    281,    0.0,    9.8,   0.00,   0.00, 1010.4,    0.7, -999.0
26-07-2023, 00:41:51,    281,    0.0,    9.8,   0.00,   0.00, 1010.4,    0.7, -999.0
26-07-2023, 00:42:01,    281,    0.0,    9.8,   0.00,   0.00, 1010.4,    0.6, -999.0
26-07-2023, 00:42:11,    281,    0.0,    9.9,   0.00,   0.00, 1010.4,    0.7, -999.0
26-07-2023, 00:42:21,    281,    0.0,    9.8,   0.00,   0.00, 1010.3,    0.6, -999.0
26-07-2023, 00:42:31,    281,    0.0,    9.8,   0.00,   0.00, 1010.4,    0.4, -999.0
26-07-2023, 00:42:41,    281,    0.0,    9.9,   0.00,   0.00, 1010.4,    0.6, -999.0
26-07-2023, 00:42:50,    281,    0.0,    9.9,   0.00,   0.00, 1010.3,    0.7, -999.0
26-07-2023, 00:43:01,    281,    0.0,    9.9,   0.00,   0.00, 1010.3,    0.5, -999.0
26-07-2023, 00:43:11,    281,    0.0,    9.9,   0.00,   0.00, 1010.3,    0.7, -999.0
26-07-2023, 00:43:21,    281,    0.0,    9.9,   0.00,   0.00, 1010.3,    0.4, -999.0
26-07-2023, 00:43:30,    281,    0.0,    9.9,   0.00,   0.00, 1010.3,    0.6, -999.0
26-07-2023, 00:43:41,    281,    0.0,    9.9,   0.00,   0.00, 1010.3,    0.6, -999.0
26-07-2023, 00:43:51,    281,    0.0,    9.9,   0.00,   0.00, 1010.3,    0.7, -999.0
26-07-2023, 00:44:00,    281,    0.0,    9.8,   0.00,   0.00, 1010.3,    0.6, -999.0
26-07-2023, 00:44:10,    281,    0.0,    9.8,   0.00,   0.00, 1010.3,    0.6, -999.0
26-07-2023, 00:44:21,    281,    0.0,    9.8,   0.00,   0.00, 1010.3,    0.5, -999.0
26-07-2023, 00:44:31,    281,    0.0,    9.8,   0.00,   0.00, 1010.3,    0.6, -999.0
26-07-2023, 00:44:40,    281,    0.0,    9.8,   0.00,   0.00, 1010.3,    0.7, -999.0
26-07-2023, 00:44:50,    281,    0.0,    9.8,   0.00,   0.00, 1010.3,    0.5, -999.0
26-07-2023, 00:45:01,    282,    0.0,    9.8,   0.00,   0.00, 1010.3,    0.9, -999.0
26-07-2023, 00:45:10,    281,    0.0,    9.9,   0.00,   0.00, 1010.3,    0.4, -999.0
26-07-2023, 00:45:20,    281,    0.0,    9.8,   0.00,   0.00, 1010.3,    0.3, -999.0
26-07-2023, 00:45:30,    281,    0.0,    9.8,   0.00,   0.00, 1010.3,    1.2, -999.0
26-07-2023, 00:45:41,    281,    0.0,    9.9,   0.00,   0.00, 1010.3,    0.9, -999.0
26-07-2023, 00:45:50,    281,    0.0,    9.7,   0.00,   0.00, 1010.3,    0.8, -999.0
26-07-2023, 00:46:00,    281,    0.0,    9.8,   0.00,   0.00, 1010.4,    0.2, -999.0
26-07-2023, 00:46:10,    281,    0.0,    9.8,   0.00,   0.00, 1010.4,    0.0, -999.0
26-07-2023, 00:46:20,    281,    0.0,    9.8,   0.00,   0.00, 1010.4,    0.7, -999.0
26-07-2023, 00:46:30,    281,    0.0,    9.8,   0.00,   0.00, 1010.4,    0.5, -999.0
26-07-2023, 00:46:40,    281,    0.0,    9.7,   0.00,   0.00, 1010.4,    0.6, -999.0
26-07-2023, 00:46:50,    281,    0.0,    9.7,   0.00,   0.00, 1010.4,    0.6, -999.0